Temperature
23 23 22 22 22 21 21 20 19 19 18 18 17 17 17 17 16 16 15 15 15 15 15 15 15 14 14 14 14 14 14 14 15 15 15 16 16 16 16 16 16 16 16
23 22 22 22 21 21 20 20 19 19 18 18 17 17 17 16 16 16 15 15 15 15 15 14 14 14 14 14 14 14 14 14 14 15 15 15 15 15 16 16 16 16 16
23 22 22 21 21 21 20 20 19 19 18 18 17 17 17 16 16 16 16 15 15 15 15 14 14 14 14 14 14 14 14 14 14 14 15 15 15 15 15 15 16 16 16
23 22 22 21 21 21 20 20 19 19 18 18 18 17 17 16 16 16 16 15 15 15 15 14 14 14 14 14 14 14 14 14 14 14 14 15 15 15 15 15 15 15 15
23 22 21 21 21 20 20 20 19 19 19 18 18 17 17 16 16 16 16 15 15 15 15 15 14 14 14 14 14 14 14 14 14 14 14 14 15 15 15 15 15 15 15
22 22 21 21 20 20 20 20 19 19 19 18 18 17 17 17 16 16 16 16 15 15 15 15 14 14 14 14 14 14 14 14 14 14 14 14 14 14 15 15 15 15 15
22 21 21 20 20 20 20 19 19 19 18 18 18 17 17 17 16 16 16 16 15 15 15 15 14 14 14 14 14 14 14 14 14 14 14 14 14 14 14 14 15 15 15
22 21 21 20 20 20 19 19 19 19 18 18 18 17 17 17 16 16 16 16 15 15 15 15 14 14 14 14 14 14 14 14 14 14 14 14 14 14 14 14 14 15 15
22 21 21 20 20 19 19 19 19 18 18 18 18 17 17 17 17 16 16 16 16 15 15 15 15 14 14 14 14 14 14 13 13 14 14 14 14 14 14 14 14 14 14
21 21 20 20 20 19 19 19 19 18 18 18 18 18 17 17 17 16 16 16 16 15 15 15 15 15 14 14 14 14 14 13 13 13 14 14 14 14 14 14 14 14 14
21 20 20 20 19 19 19 19 18 18 18 18 18 17 17 17 17 16 16 16 16 16 15 15 15 15 14 14 14 14 14 14 14 13 13 13 13 14 14 14 14 14 14
20 20 19 19 19 19 19 18 18 18 18 18 17 17 17 17 17 16 16 16 16 16 15 15 15 15 15 14 14 14 14 14 14 14 13 13 14 14 14 14 14 14 14
19 19 19 19 19 18 18 18 18 18 17 17 17 17 17 17 16 16 16 16 16 16 15 15 15 15 15 14 14 14 14 14 14 14 14 14 14 14 14 13 13 14 14
19 19 18 18 18 18 18 18 17 17 17 17 17 17 16 16 16 16 16 16 16 15 15 15 15 15 15 15 14 14 14 14 14 14 14 14 14 14 14 14 13 13 13
19 19 18 18 18 18 18 17 17 17 17 17 16 16 16 16 16 16 16 15 15 15 15 15 15 15 15 15 15 15 14 14 14 14 14 14 14 14 14 14 14 13 13
19 19 18 18 18 18 17 17 17 17 17 16 16 16 16 16 16 15 15 15 15 15 15 15 15 15 15 15 15 14 14 14 14 14 14 14 14 14 14 14 14 14 13
19 18 18 18 18 17 17 17 17 17 17 16 16 16 16 15 15 15 15 15 15 15 15 15 14 14 14 14 14 14 14 14 14 14 14 14 14 14 14 14 14 14 13
18 18 18 18 17 17 17 17 17 17 16 16 16 15 15 15 15 15 15 15 14 14 14 14 14 14 14 14 14 14 14 14 14 14 14 14 14 14 14 14 14 14 13
18 17 17 17 17 17 17 17 16 16 16 16 15 15 15 15 15 14 14 14 14 14 14 14 14 14 14 14 14 14 14 14 14 14 14 14 14 14 14 14 13 13 13
17 17 17 17 17 16 16 16 16 16 15 15 15 15 14 14 14 14 14 14 14 14 14 13 13 13 13 13 13 13 13 13 13 13 13 13 13 14 14 14 13 13 13
17 16 16 16 16 16 16 15 15 15 15 14 14 14 14 14 14 14 14 13 13 13 13 13 13 13 13 13 13 13 13 13 13 13 13 13 13 13 13 13 13 13 13
16 16 16 15 15 15 15 15 15 14 14 14 14 14 13 13 13 13 13 13 13 12 12 12 12 13 13 13 13 13 12 12 12 12 12 12 12 12 13 13 13 13 13
15 15 15 15 15 15 14 14 14 14 14 14 13 13 13 13 13 13 13 12 12 12 12 12 12 12 12 12 12 12 12 12 12 12 12 12 12 12 12 12 12 13 13
15 15 14 14 14 14 14 14 14 13 13 13 13 13 13 12 12 12 12 12 12 12 11 11 11 11 11 11 12 12 11 11 11 11 11 11 11 11 12 12 12 12 12
15 14 14 14 14 14 13 13 13 13 13 12 12 12 12 12 12 12 11 11 11 11 11 11 11 11 11 11 11 11 11 11 11 11 11 11 11 11 11 11 11 11 12
14 14 14 13 13 13 13 13 13 12 12 12 12 12 11 11 11 11 11 11 11 11 11 11 11 11 11 11 11 11 11 10 10 10 10 10 10 11 11 11 11 11 11
Wind_Speed
9 9 8 7 6 7 7 7 7 6 4 3 2 2 2 1 2 2 3 2 3 5 3 3 3 3 3 4 4 4 4 3 3 2 2 2 1 1 0 0 1 1 1
10 9 8 7 6 6 6 6 6 6 6 3 2 2 2 0 2 1 2 3 4 4 4 4 3 3 2 3 4 3 3 3 3 2 1 2 2 2 0 0 0 0 1
9 9 8 8 6 6 6 5 5 6 6 5 3 2 2 1 1 1 1 1 2 2 3 4 4 4 3 2 3 3 3 3 3 2 1 1 1 2 1 0 0 1 1
7 8 8 8 7 6 5 5 5 5 6 6 4 2 1 1 1 1 1 0 1 1 2 3 3 3 3 3 3 3 2 2 3 3 2 1 0 0 2 2 1 1 1
7 8 7 7 7 6 5 4 5 5 6 5 5 2 1 1 1 1 1 0 0 1 0 1 2 3 2 2 3 3 3 2 2 2 2 2 2 1 0 1 1 1 0
7 7 7 7 6 6 5 4 4 5 5 4 4 4 3 1 1 1 0 1 1 1 1 1 1 2 2 2 2 2 2 1 2 2 2 2 1 1 1 1 1 0 1
8 8 7 7 6 5 5 4 5 4 4 4 4 4 3 2 2 1 1 2 1 0 0 1 1 1 2 2 2 2 2 1 1 2 2 2 2 1 1 1 1 1 1
8 8 7 7 6 6 5 4 4 4 4 3 3 2 3 2 1 1 1 1 1 0 1 1 0 0 1 2 2 2 2 2 2 2 2 1 2 1 1 0 0 1 1
8 8 8 7 6 6 5 4 4 4 4 4 3 3 2 2 1 1 1 1 1 1 1 1 1 1 0 1 2 2 3 2 2 3 3 1 1 1 1 0 0 1 0
8 8 7 6 6 5 5 4 4 4 4 3 2 2 2 2 2 2 1 1 2 1 1 2 2 1 1 1 1 2 2 2 2 2 2 2 1 1 1 1 1 1 2
8 7 6 6 6 5 5 4 4 3 3 2 2 2 2 2 2 2 2 2 3 3 2 2 2 2 1 1 2 2 2 2 3 2 2 2 1 2 1 1 1 1 1
8 7 6 6 5 4 4 3 3 3 2 2 1 1 1 1 2 2 2 3 3 3 3 3 2 2 2 2 2 3 2 2 3 3 2 2 2 2 2 1 1 1 1
8 7 6 5 4 3 3 3 3 3 2 2 1 1 1 1 1 2 1 2 3 3 3 3 2 2 2 2 3 3 3 3 3 3 3 3 2 2 2 2 2 2 2
8 7 6 5 4 3 3 3 3 2 2 2 1 0 1 1 1 1 1 2 3 3 3 3 3 2 2 2 2 3 4 4 4 3 3 3 2 3 3 3 3 2 2
7 7 5 4 4 3 3 2 2 2 2 2 1 0 1 1 1 1 2 2 3 4 4 3 3 3 2 1 2 3 5 5 4 3 3 3 4 3 2 2 2 2 2
7 6 5 4 3 3 2 2 2 2 2 2 1 1 1 1 2 2 2 3 3 3 3 4 4 3 2 1 1 3 4 5 5 5 4 4 5 6 6 6 5 4 3
6 5 4 3 3 3 3 2 2 2 2 2 1 1 1 1 1 2 2 3 3 3 4 4 4 3 3 3 3 5 5 6 6 5 5 5 4 5 5 7 8 7 8
6 5 3 3 3 3 3 3 3 3 3 2 1 1 1 1 2 2 3 3 3 3 3 4 4 4 4 5 4 5 6 6 6 5 5 5 4 4 3 4 5 6 7
5 4 3 3 3 3 2 2 2 2 3 2 2 1 1 1 2 3 3 3 3 4 4 4 5 5 5 6 6 5 4 6 7 5 5 4 3 4 4 4 5 5 6
5 4 3 3 4 3 3 3 3 3 3 2 3 3 2 2 3 3 3 3 4 4 4 5 5 5 5 6 7 6 4 5 6 5 4 5 5 4 4 4 5 6 5
5 4 4 4 4 3 3 3 3 3 2 2 3 3 3 3 3 2 3 4 4 4 5 6 6 5 6 6 6 6 4 5 6 5 4 4 7 7 7 7 6 7 6
5 4 4 3 3 3 3 3 3 3 3 3 3 3 3 4 3 2 3 4 4 4 5 5 5 4 4 4 6 7 8 7 5 6 4 4 7 8 9 8 8 10 7
4 3 3 2 2 2 2 2 2 3 3 3 4 4 4 3 3 2 3 4 4 3 4 4 5 5 4 4 7 8 9 9 6 6 7 8 10 9 8 10 11 8 5
3 2 2 1 1 1 1 2 3 3 3 4 4 4 4 3 3 3 3 3 4 4 4 4 5 5 5 4 3 4 5 8 8 7 8 10 11 9 9 8 8 7 6
2 2 1 1 1 1 1 2 3 4 5 4 4 4 4 4 4 4 4 5 5 5 6 5 5 5 6 6 7 6 6 5 6 7 6 6 5 6 7 6 6 6 6
1 1 1 0 2 2 2 2 3 4 5 5 5 4 4 4 4 5 6 8 9 10 11 11 10 8 10 10 11 11 12 11 11 8 7 8 7 8 8 8 7 7 7
Wind_Direction
152 145 146 145 146 135 131 131 137 133 120 102 93 91 87 31 75 66 62 22 25 18 8 359 2 7 6 351 357 352 340 333 335 341 334 325 286 121 153 305 332 1 68
145 146 144 143 142 130 129 133 132 130 123 126 120 122 115 116 114 82 60 27 29 18 4 2 353 0 357 2 352 348 346 327 337 343 349 342 354 354 168 192 200 66 54
145 147 146 142 139 135 137 138 136 134 130 133 114 86 76 348 91 113 98 50 33 29 14 355 351 347 359 359 337 355 355 323 324 354 19 0 327 314 318 298 96 88 76
137 143 148 146 148 143 140 142 136 136 134 133 120 126 144 107 103 95 114 202 131 59 23 352 339 342 352 359 355 19 344 333 325 330 330 308 74 41 333 332 16 85 85
132 138 141 142 140 136 138 133 129 122 119 125 142 169 120 86 79 77 102 299 170 170 118 10 334 337 346 359 5 356 349 344 334 327 327 336 338 284 191 302 317 4 34
127 127 129 128 125 126 125 120 118 120 126 143 159 168 157 161 131 109 351 285 248 222 186 209 314 336 349 342 343 329 335 328 330 326 329 341 341 332 354 304 291 245 241
140 135 131 132 131 130 132 136 133 138 145 168 176 171 168 195 190 174 222 265 285 262 313 353 340 357 347 333 341 338 321 315 331 319 315 323 317 323 344 5 321 325 257
135 133 136 139 140 140 148 150 149 156 163 184 178 175 174 182 147 196 251 244 274 296 49 318 331 356 335 335 350 333 328 337 333 319 312 294 308 321 348 348 33 341 322
123 123 127 130 131 138 150 151 156 162 173 190 187 188 185 161 161 235 271 318 301 297 347 313 306 268 267 316 342 322 324 331 328 318 318 308 288 296 326 335 176 164 300
115 116 119 122 126 126 133 139 152 169 172 181 196 186 174 169 186 239 255 303 290 297 285 286 289 273 231 228 230 287 303 314 302 290 300 309 298 298 263 253 270 225 189
109 107 108 108 110 116 126 137 147 158 153 172 191 178 186 199 210 219 221 244 260 259 258 267 287 296 277 256 241 247 260 278 286 283 262 254 261 284 280 250 255 262 183
105 104 105 105 104 112 125 134 144 143 142 170 182 185 179 201 238 236 230 248 258 261 262 259 254 273 281 278 267 264 260 251 262 269 267 256 241 247 265 263 250 254 234
113 107 102 100 98 99 102 107 111 119 125 131 141 170 204 223 251 261 259 272 277 274 273 271 266 263 267 266 271 273 268 256 245 244 249 251 236 239 231 225 237 251 254
114 112 112 110 107 104 99 99 103 114 123 131 152 207 296 296 284 290 284 289 297 297 296 293 287 281 283 288 302 297 284 271 256 239 229 232 223 238 244 233 234 234 240
114 111 114 114 113 110 107 103 108 117 120 121 131 130 313 320 321 321 311 299 295 300 302 301 300 296 292 312 351 326 308 300 283 261 233 221 208 208 220 233 248 256 243
116 114 114 114 122 120 114 100 96 96 97 93 84 68 347 350 343 331 320 305 294 295 304 301 296 291 297 311 297 293 299 299 293 286 263 228 214 210 219 225 220 214 226
119 114 115 109 113 105 101 95 78 75 90 85 52 46 340 342 329 321 313 302 293 284 284 282 282 275 268 249 265 275 279 279 280 282 280 275 238 208 213 225 232 235 234
115 108 102 96 92 91 91 93 88 76 68 57 24 12 1 344 329 306 295 291 295 289 271 270 273 266 256 239 245 268 268 272 272 269 269 270 258 235 225 223 224 231 231
109 102 90 81 73 65 69 77 83 79 66 34 352 342 332 312 300 295 287 281 288 289 285 277 270 267 258 240 238 246 267 271 272 268 270 271 263 252 241 243 245 243 238
98 93 85 70 61 51 48 44 49 56 45 13 344 334 327 306 286 283 287 285 278 272 277 281 271 267 261 251 241 230 254 269 274 268 257 256 256 272 249 241 245 247 246
97 90 82 69 51 37 40 37 31 27 8 347 328 314 309 294 282 285 287 286 280 280 278 278 272 265 262 250 242 233 243 261 277 276 263 249 240 248 258 259 249 242 249
102 98 90 77 55 32 25 29 23 1 348 333 313 299 295 298 308 295 286 286 282 281 280 282 284 276 271 264 254 242 244 261 274 278 273 264 254 252 254 254 255 255 252
112 98 93 91 73 39 19 4 348 337 325 316 306 296 294 295 299 298 294 294 285 280 284 287 289 291 285 270 258 250 252 262 269 278 278 277 276 269 257 249 252 253 243
118 115 110 95 55 18 351 334 332 322 309 301 299 300 303 309 311 298 276 279 280 274 275 281 283 285 283 279 277 274 271 266 266 270 276 276 270 258 255 252 246 237 229
131 129 116 105 307 309 320 336 335 330 316 309 311 313 316 312 300 288 277 274 264 259 258 262 266 273 276 272 276 282 282 278 273 280 275 265 262 250 244 240 233 226 225
131 133 120 266 291 309 331 349 347 334 324 322 322 316 310 307 302 296 293 275 271 274 267 261 263 269 265 269 270 272 273 271 271 279 268 259 253 249 245 240 233 225 222
Height
1500 1503 1506 1509 1512 1514 1516 1518 1519 1520 1521 1521 1522 1522 1522 1522 1522 1521 1520 1520 1519 1518 1517 1516 1515 1514 1513 1512 1511 1511 1510 1510 1510 1509 1509 1509 1509 1509 1510 1510 1511 1512 1513
1498 1502 1505 1508 1511 1513 1516 1517 1519 1520 1520 1521 1521 1522 1522 1522 1521 1520 1520 1519 1518 1518 1517 1516 1515 1514 1513 1512 1511 1510 1510 1510 1510 1510 1509 1509 1510 1510 1510 1510 1511 1511 1512
1498 1501 1504 1508 1510 1513 1515 1516 1518 1519 1519 1520 1521 1521 1521 1521 1521 1520 1520 1519 1518 1518 1517 1516 1515 1514 1513 1512 1511 1510 1510 1509 1510 1510 1510 1510 1510 1510 1510 1510 1510 1511 1512
1498 1501 1504 1507 1510 1512 1514 1516 1517 1518 1519 1519 1520 1520 1521 1521 1521 1520 1519 1519 1518 1518 1517 1515 1515 1514 1513 1512 1511 1510 1510 1509 1509 1510 1510 1511 1511 1511 1510 1511 1510 1511 1511
1498 1501 1504 1507 1509 1511 1513 1515 1516 1517 1518 1518 1519 1520 1520 1520 1520 1520 1519 1519 1518 1518 1517 1515 1514 1513 1512 1512 1511 1510 1509 1509 1509 1509 1510 1510 1510 1510 1510 1510 1511 1511 1511
1498 1501 1504 1506 1508 1510 1512 1514 1515 1516 1517 1518 1518 1519 1519 1519 1519 1519 1519 1518 1518 1517 1516 1515 1514 1513 1512 1511 1511 1510 1509 1509 1509 1509 1509 1509 1510 1510 1510 1510 1510 1510 1511
1498 1501 1503 1506 1507 1509 1511 1512 1514 1515 1516 1517 1518 1518 1518 1519 1519 1519 1518 1518 1518 1517 1516 1515 1514 1513 1512 1511 1510 1510 1509 1508 1508 1508 1508 1508 1509 1509 1509 1509 1509 1510 1510
1498 1501 1503 1505 1507 1508 1510 1511 1513 1514 1515 1516 1517 1517 1518 1518 1518 1518 1518 1518 1517 1517 1516 1515 1514 1513 1512 1511 1510 1509 1509 1508 1508 1507 1507 1507 1508 1508 1508 1509 1509 1509 1510
1498 1500 1503 1505 1506 1507 1509 1510 1511 1513 1514 1515 1516 1516 1517 1517 1517 1517 1517 1517 1516 1516 1515 1514 1513 1512 1511 1510 1510 1509 1508 1507 1507 1506 1506 1506 1506 1507 1507 1508 1508 1509 1509
1498 1500 1503 1504 1506 1507 1508 1509 1510 1512 1512 1513 1514 1515 1515 1516 1516 1516 1516 1516 1515 1515 1514 1514 1513 1512 1511 1510 1509 1508 1508 1507 1506 1506 1505 1505 1505 1506 1506 1506 1507 1508 1509
1498 1500 1502 1504 1506 1507 1508 1509 1510 1511 1511 1512 1513 1514 1514 1514 1514 1515 1515 1514 1514 1514 1513 1513 1512 1511 1511 1510 1509 1508 1507 1506 1505 1505 1504 1504 1504 1504 1504 1505 1505 1506 1507
1498 1501 1503 1504 1506 1507 1508 1509 1509 1510 1511 1511 1512 1512 1513 1513 1513 1513 1513 1513 1513 1512 1512 1512 1511 1510 1510 1509 1508 1507 1507 1506 1505 1504 1504 1503 1503 1503 1503 1503 1504 1504 1505
1499 1501 1503 1504 1506 1507 1508 1508 1509 1509 1510 1510 1510 1511 1511 1511 1511 1511 1511 1511 1511 1511 1510 1510 1509 1509 1508 1507 1507 1506 1505 1505 1504 1503 1503 1502 1502 1502 1502 1502 1502 1502 1503
1499 1501 1503 1504 1505 1506 1507 1508 1508 1508 1509 1509 1509 1509 1509 1510 1510 1510 1509 1509 1509 1509 1508 1508 1507 1507 1506 1506 1505 1504 1503 1503 1502 1502 1501 1501 1500 1500 1500 1500 1500 1500 1500
1499 1501 1503 1504 1505 1506 1506 1507 1507 1508 1508 1508 1508 1508 1508 1508 1508 1508 1507 1507 1506 1506 1506 1505 1505 1504 1504 1503 1502 1502 1501 1501 1500 1500 1500 1499 1499 1498 1498 1498 1498 1498 1498
1499 1501 1503 1503 1504 1505 1505 1506 1506 1506 1506 1506 1506 1506 1506 1506 1506 1505 1505 1504 1504 1503 1503 1503 1502 1502 1501 1500 1500 1499 1499 1498 1498 1497 1497 1496 1496 1496 1495 1495 1495 1496 1496
1498 1500 1501 1503 1503 1504 1504 1505 1505 1505 1505 1505 1505 1505 1504 1504 1504 1503 1502 1502 1501 1501 1500 1500 1499 1498 1498 1497 1497 1496 1496 1495 1495 1494 1494 1494 1493 1493 1492 1492 1492 1492 1492
1498 1499 1501 1502 1502 1503 1503 1504 1504 1504 1504 1503 1503 1503 1502 1502 1501 1500 1500 1499 1498 1498 1497 1496 1496 1495 1495 1494 1493 1493 1492 1491 1491 1491 1491 1490 1490 1489 1489 1488 1488 1488 1488
1497 1498 1500 1500 1501 1502 1502 1503 1503 1503 1502 1502 1502 1501 1500 1499 1498 1498 1497 1496 1496 1495 1494 1493 1493 1492 1491 1491 1490 1489 1488 1488 1487 1487 1487 1486 1486 1485 1485 1485 1484 1484 1484
1496 1497 1498 1499 1500 1500 1501 1501 1501 1501 1500 1500 1500 1499 1498 1497 1496 1495 1494 1493 1493 1492 1491 1490 1490 1489 1488 1487 1487 1486 1485 1484 1483 1482 1482 1482 1481 1481 1480 1480 1479 1479 1479
1495 1496 1497 1498 1498 1499 1499 1499 1499 1499 1499 1498 1497 1497 1496 1494 1494 1492 1491 1490 1489 1489 1487 1486 1486 1485 1484 1483 1483 1482 1481 1480 1479 1478 1477 1476 1476 1475 1475 1475 1474 1474 1475
1494 1495 1496 1497 1497 1498 1498 1498 1498 1497 1497 1496 1495 1494 1493 1492 1491 1490 1488 1487 1486 1485 1484 1483 1482 1481 1480 1479 1478 1477 1476 1475 1474 1473 1472 1471 1471 1470 1469 1469 1468 1469 1470
1493 1494 1495 1495 1496 1496 1496 1496 1496 1495 1494 1494 1493 1492 1491 1490 1488 1487 1485 1484 1483 1482 1480 1479 1477 1476 1475 1474 1473 1472 1471 1470 1469 1467 1466 1466 1465 1464 1463 1463 1463 1463 1463
1492 1493 1494 1494 1495 1495 1494 1494 1494 1493 1492 1491 1490 1489 1488 1486 1485 1483 1482 1481 1479 1478 1476 1475 1473 1472 1470 1469 1468 1466 1465 1464 1463 1461 1460 1459 1458 1457 1456 1456 1456 1456 1457
1490 1491 1492 1492 1493 1493 1492 1492 1491 1490 1489 1488 1487 1486 1485 1483 1481 1480 1478 1477 1475 1474 1473 1471 1469 1467 1465 1464 1463 1462 1460 1458 1457 1455 1453 1452 1451 1449 1449 1449 1449 1449 1450
1488 1489 1489 1490 1490 1490 1490 1489 1488 1487 1486 1485 1484 1483 1481 1479 1477 1475 1474 1472 1471 1470 1468 1466 1465 1462 1461 1459 1457 1456 1454 1452 1451 1449 1446 1445 1444 1443 1442 1442 1441 1442 1443